• In Kazakhstan
  • List of Countries
  • For 7 days
  • Water Temperature
  • Weather Map
  • News
  • Weather Widgets
  • user-avatar
    Login

    Hourly Weather Salzburg

    Today, 25 August, Sunday

    Time Temperature Precipitation Wind Pressure Humidity
    00:00 +10°C° 0 mm 2 mps 630 mmHg 89%
    01:00 +9°C° 0 mm 2 mps 630 mmHg 89%
    02:00 +9°C° 0 mm 2 mps 630 mmHg 88%
    03:00 +9°C° 0 mm 2 mps 630 mmHg 88%
    04:00 +10°C° 0 mm 1 mps 630 mmHg 87%
    05:00 +11°C° 0 mm 1 mps 630 mmHg 86%
    06:00 +12°C° 0 mm 1 mps 630 mmHg 84%
    07:00 +13°C° 0 mm 1 mps 631 mmHg 81%
    08:00 +15°C° 0 mm 1 mps 632 mmHg 74%
    09:00 +18°C° 0 mm 1 mps 632 mmHg 66%
    10:00 +20°C° 0 mm 1 mps 633 mmHg 58%
    11:00 +21°C° 0.3 mm 1 mps 633 mmHg 59%
    12:00 +21°C° 0.3 mm 1 mps 633 mmHg 60%
    13:00 +21°C° 0.3 mm 1 mps 633 mmHg 61%
    14:00 +20°C° 0.9 mm 1 mps 633 mmHg 67%
    15:00 +20°C° 0.9 mm 1 mps 632 mmHg 73%
    16:00 +19°C° 0.9 mm 1 mps 632 mmHg 78%
    17:00 +18°C° 0.9 mm 1 mps 631 mmHg 82%
    18:00 +15°C° 0.9 mm 1 mps 631 mmHg 87%
    19:00 +13°C° 0.9 mm 1 mps 631 mmHg 91%
    20:00 +13°C° 0.3 mm 1 mps 631 mmHg 91%
    21:00 +12°C° 0.3 mm 1 mps 631 mmHg 92%
    22:00 +12°C° 0.3 mm 1 mps 631 mmHg 92%
    23:00 +12°C° 0 mm 1 mps 631 mmHg 92%

    Tomorrow, 26 August, Monday

    Time Temperature Precipitation Wind Pressure Humidity
    00:00 +11°C° 0 mm 1 mps 630 mmHg 92%
    01:00 +11°C° 0 mm 1 mps 630 mmHg 92%
    02:00 +11°C° 0 mm 1 mps 630 mmHg 92%
    03:00 +10°C° 0 mm 1 mps 630 mmHg 92%
    04:00 +10°C° 0 mm 1 mps 630 mmHg 92%
    05:00 +11°C° 0 mm 1 mps 630 mmHg 91%
    06:00 +12°C° 0 mm 1 mps 630 mmHg 89%
    07:00 +13°C° 0 mm 1 mps 631 mmHg 88%
    08:00 +15°C° 0.1 mm 1 mps 631 mmHg 79%
    09:00 +18°C° 0.1 mm 1 mps 632 mmHg 71%
    10:00 +21°C° 0.1 mm 1 mps 633 mmHg 62%
    11:00 +21°C° 0.3 mm 1 mps 633 mmHg 60%
    12:00 +22°C° 0.3 mm 1 mps 633 mmHg 58%
    13:00 +23°C° 0.3 mm 1 mps 633 mmHg 56%
    14:00 +22°C° 0.8 mm 1 mps 632 mmHg 62%
    15:00 +21°C° 0.8 mm 1 mps 632 mmHg 68%
    16:00 +20°C° 0.8 mm 1 mps 632 mmHg 73%
    17:00 +19°C° 1.3 mm 1 mps 631 mmHg 79%
    18:00 +16°C° 1.3 mm 1 mps 630 mmHg 84%
    19:00 +14°C° 1.3 mm 1 mps 630 mmHg 89%
    20:00 +14°C° 0.4 mm 1 mps 630 mmHg 90%
    21:00 +13°C° 0.4 mm 1 mps 630 mmHg 90%
    22:00 +13°C° 0.4 mm 1 mps 630 mmHg 90%
    23:00 +12°C° 0 mm 1 mps 630 mmHg 90%

    Day after tomorrow, 27 August, Tuesday

    Time Temperature Precipitation Wind Pressure Humidity
    00:00 +12°C° 0 mm 1 mps 630 mmHg 91%
    01:00 +11°C° 0 mm 1 mps 629 mmHg 91%
    02:00 +11°C° 0 mm 1 mps 629 mmHg 90%
    03:00 +11°C° 0 mm 1 mps 629 mmHg 90%
    04:00 +11°C° 0 mm 1 mps 629 mmHg 90%
    05:00 +12°C° 0 mm 1 mps 629 mmHg 88%
    06:00 +13°C° 0 mm 1 mps 630 mmHg 87%
    07:00 +14°C° 0 mm 1 mps 630 mmHg 85%
    08:00 +16°C° 0 mm 1 mps 631 mmHg 75%
    09:00 +18°C° 0 mm 0 mps 632 mmHg 65%
    10:00 +20°C° 0 mm 0 mps 633 mmHg 55%
    11:00 +23°C° 0.3 mm 1 mps 633 mmHg 51%
    12:00 +24°C° 0.3 mm 1 mps 633 mmHg 48%
    13:00 +24°C° 0.3 mm 1 mps 634 mmHg 45%
    14:00 +24°C° 0.3 mm 1 mps 633 mmHg 49%
    15:00 +23°C° 0.3 mm 1 mps 633 mmHg 53%
    16:00 +22°C° 0.3 mm 1 mps 632 mmHg 57%
    17:00 +20°C° 0.1 mm 1 mps 631 mmHg 67%
    18:00 +18°C° 0.1 mm 1 mps 631 mmHg 76%
    19:00 +14°C° 0.1 mm 1 mps 630 mmHg 86%
    20:00 +14°C° 0 mm 1 mps 630 mmHg 87%
    21:00 +13°C° 0 mm 1 mps 630 mmHg 87%
    22:00 +13°C° 0 mm 2 mps 630 mmHg 87%
    23:00 +12°C° 0 mm 2 mps 630 mmHg 87%

    28 August, Wednesday

    Time Temperature Precipitation Wind Pressure Humidity
    00:00 +12°C° 0 mm 2 mps 630 mmHg 87%
    01:00 +12°C° 0 mm 2 mps 630 mmHg 87%
    02:00 +12°C° 0 mm 2 mps 630 mmHg 86%
    03:00 +10°C° 0 mm 2 mps 629 mmHg 85%
    04:00 +11°C° 0 mm 1 mps 629 mmHg 84%
    05:00 +12°C° 0 mm 1 mps 630 mmHg 82%
    06:00 +13°C° 0 mm 1 mps 630 mmHg 79%
    07:00 +14°C° 0 mm 1 mps 630 mmHg 77%
    08:00 +16°C° 0 mm 1 mps 631 mmHg 68%
    09:00 +20°C° 0 mm 1 mps 632 mmHg 59%
    10:00 +21°C° 0 mm 0 mps 633 mmHg 51%
    11:00 +23°C° 0 mm 1 mps 633 mmHg 48%
    12:00 +24°C° 0 mm 1 mps 633 mmHg 45%
    13:00 +25°C° 0 mm 1 mps 633 mmHg 43%
    14:00 +24°C° 0.2 mm 1 mps 632 mmHg 50%
    15:00 +23°C° 0.2 mm 1 mps 631 mmHg 57%
    16:00 +22°C° 0.2 mm 1 mps 631 mmHg 64%
    17:00 +20°C° 0.5 mm 1 mps 630 mmHg 71%
    18:00 +18°C° 0.5 mm 1 mps 629 mmHg 78%
    19:00 +15°C° 0.5 mm 1 mps 629 mmHg 84%
    20:00 +14°C° 0.1 mm 1 mps 629 mmHg 85%
    21:00 +14°C° 0.1 mm 1 mps 629 mmHg 86%
    22:00 +13°C° 0.1 mm 2 mps 629 mmHg 87%
    23:00 +12°C° 0.1 mm 1 mps 629 mmHg 87%

    29 August, Thursday

    Time Temperature Precipitation Wind Pressure Humidity
    00:00 +12°C° 0.1 mm 1 mps 628 mmHg 87%
    01:00 +12°C° 0.1 mm 1 mps 628 mmHg 87%
    02:00 +11°C° 0.1 mm 1 mps 628 mmHg 86%
    03:00 +11°C° 0.1 mm 1 mps 628 mmHg 86%
    04:00 +11°C° 0.1 mm 1 mps 628 mmHg 86%
    05:00 +12°C° 0.1 mm 1 mps 629 mmHg 86%
    06:00 +12°C° 0.1 mm 1 mps 629 mmHg 85%
    07:00 +13°C° 0.1 mm 1 mps 629 mmHg 84%
    08:00 +15°C° 0.5 mm 1 mps 630 mmHg 82%
    09:00 +16°C° 0.5 mm 1 mps 631 mmHg 79%
    10:00 +19°C° 0.5 mm 1 mps 631 mmHg 76%
    11:00 +19°C° 1.2 mm 1 mps 631 mmHg 78%
    12:00 +19°C° 1.2 mm 1 mps 631 mmHg 79%
    13:00 +19°C° 1.2 mm 1 mps 631 mmHg 80%
    14:00 +18°C° 1 mm 1 mps 631 mmHg 83%
    15:00 +18°C° 1 mm 1 mps 631 mmHg 86%
    16:00 +16°C° 1 mm 1 mps 630 mmHg 89%
    17:00 +15°C° 0.4 mm 1 mps 630 mmHg 90%
    18:00 +13°C° 0.4 mm 0 mps 630 mmHg 90%
    19:00 +12°C° 0.4 mm 0 mps 630 mmHg 91%
    20:00 +12°C° 0 mm 0 mps 630 mmHg 91%
    21:00 +12°C° 0 mm 1 mps 630 mmHg 91%
    22:00 +11°C° 0 mm 1 mps 631 mmHg 91%
    23:00 +11°C° 0 mm 1 mps 630 mmHg 91%

    30 August, Friday

    Time Temperature Precipitation Wind Pressure Humidity
    00:00 +11°C° 0 mm 1 mps 630 mmHg 92%
    01:00 +11°C° 0 mm 1 mps 630 mmHg 92%
    02:00 +10°C° 0 mm 1 mps 630 mmHg 92%
    03:00 +10°C° 0 mm 1 mps 630 mmHg 92%
    04:00 +10°C° 0 mm 1 mps 630 mmHg 92%
    05:00 +11°C° 0 mm 1 mps 631 mmHg 92%
    06:00 +12°C° 0 mm 1 mps 631 mmHg 91%
    07:00 +13°C° 0 mm 1 mps 632 mmHg 90%
    08:00 +15°C° 0.1 mm 1 mps 633 mmHg 82%
    09:00 +18°C° 0.1 mm 1 mps 633 mmHg 75%
    10:00 +20°C° 0.1 mm 1 mps 634 mmHg 67%
    11:00 +20°C° 0.4 mm 1 mps 634 mmHg 66%
    12:00 +21°C° 0.4 mm 1 mps 634 mmHg 64%
    13:00 +21°C° 0.4 mm 1 mps 634 mmHg 63%
    14:00 +21°C° 0.9 mm 1 mps 633 mmHg 69%
    15:00 +20°C° 0.9 mm 1 mps 633 mmHg 75%
    16:00 +19°C° 0.9 mm 1 mps 633 mmHg 81%
    17:00 +18°C° 0.7 mm 1 mps 632 mmHg 85%
    18:00 +16°C° 0.7 mm 1 mps 632 mmHg 88%
    19:00 +13°C° 0.7 mm 0 mps 631 mmHg 91%
    20:00 +14°C° 0 mm 1 mps 631 mmHg 91%
    21:00 +13°C° 0 mm 1 mps 631 mmHg 91%
    22:00 +13°C° 0 mm 1 mps 631 mmHg 91%
    23:00 +12°C° 0 mm 1 mps 631 mmHg 91%
    Show more